Location: Huntington Bay
(40.8998°N, 73.4148°W)
Time: 14:13:33
(UTC+00:00)

Daily predictions for brighter satellites

Satellite Brightness Start Highest point End
(mag) Time Altitude Azimuth Time Altitude Azimuth Time Altitude Azimuth
Cosmos 841 Rocket 3.6 21:49:13 10° S 21:54:18 62° ESE 21:59:24 10° NNE
Meteor 1-25 Rocket 4.2 21:50:30 10° N 21:56:05 72° E 22:01:41 10° SSE
Cosmos 2278 4.4 21:51:23 10° N 21:56:24 31° ENE 22:01:22 10° ESE
Cosmos 1500 3.8 21:53:11 10° NNE 21:56:34 32° ENE 21:59:55 10° SE
CZ-2C R/B 2.9 21:52:53 10° SSE 21:57:47 89° E 22:02:34 10° NNW
Cosmos 1833 Rocket 3.2 21:52:17 10° SW 21:57:50 62° WNW 22:03:26 10° NNE
Cosmos 1634 Rocket 4.1 21:54:44 10° S 22:00:55 59° E 22:07:07 10° NNE
Cosmos 1782 2.9 21:57:22 10° S 22:01:15 54° E 22:05:10 10° NNE
H-2A R/B 2.8 21:57:26 10° SE 22:01:48 29° ENE 22:06:05 10° N
USA 267 3.4 21:55:26 10° NE 22:01:58 78° NW 22:08:30 10° SW
CZ-2D R/B 4.3 21:59:25 10° SE 22:02:34 25° ENE 22:05:43 10° NNE
Cosmos 1937 Rocket 3.5 21:58:47 10° NNW 22:04:07 73° ENE 22:09:24 10° SSE
Cosmos 2026 Rocket 4.0 21:59:44 10° N 22:05:48 61° E 22:11:46 10° SSE
Cosmos 1500 Rocket 4.1 22:02:02 10° NNW 22:06:25 66° W 22:10:44 10° S
COSMOS 2406 3.6 22:02:23 10° SSW 22:08:06 68° WNW 22:13:49 10° NNE
Cosmos 372 Rocket 4.2 22:03:08 10° N 22:08:14 50° ENE 22:13:19 10° SE
Cosmos 2195 Rocket 4.5 22:03:45 10° N 22:09:57 78° E 22:16:10 10° S
Sich 1 3.0 22:06:26 10° N 22:10:42 60° E 22:14:58 10° SSE
CZ-2C R/B 3.4 22:10:02 10° NE 22:14:28 28° E 22:18:53 10° SSE
Cosmos 1809 Rocket 4.4 22:10:37 10° N 22:16:45 83° E 22:22:49 10° S
Cosmos 1805 Rocket 3.6 22:14:14 10° N 22:18:35 84° W 22:22:55 10° S
USA 229 DEB 4.4 22:13:43 10° NW 22:21:06 68° WSW 22:28:53 10° SSE
USA 229 4.4 22:13:48 10° NW 22:21:12 68° WSW 22:28:59 10° SSE
Meteor 2-21 Rocket 4.5 22:16:22 10° N 22:22:23 57° E 22:28:17 10° SSE
NOAA 6 4.0 22:18:16 10° SSE 22:23:25 86° ENE 22:28:35 10° NNW
Lacrosse 5 rocket 2.6 22:21:17 10° NNW 22:24:21 21° NNE 22:26:07 16° ENE
CZ-4B R/B 3.7 22:19:41 10° SE 22:24:33 35° ENE 22:29:22 10° N
Cosmos 1666 3.1 22:22:09 10° N 22:25:39 38° ENE 22:29:07 10° SSE
PAYLOAD B 4.3 22:26:04 10° SSE 22:31:34 60° ENE 22:37:05 10° N
MOS 1-B Rocket 4.2 22:25:43 10° NNE 22:31:45 61° ESE 22:38:45 10° S
SL-24 R/B - RUBIN 2 3.4 22:28:03 10° NNW 22:32:31 84° ENE 22:36:49 10° SE
USA 234 3.3 22:27:24 10° ESE 22:33:47 58° NE 22:40:10 10° NW
PSLV R/B 3.5 22:34:54 10° SSE 22:38:34 78° ENE 22:42:18 10° N
Cosmos 2360 Rocket 3.9 22:40:32 10° NNE 22:42:46 14° NE 22:42:46 14° NE
Cosmos 921 Rocket 3.1 22:41:46 10° S 22:45:47 48° ESE 22:48:25 20° NE
Cosmos 1812 3.1 22:45:58 10° SSW 22:49:45 64° W 22:53:36 10° N
SL-08 RB Rocket 4.3 22:48:36 10° SE 22:52:43 33° ENE 22:56:50 10° N
CZ-2C R/B 2.7 22:51:15 10° SW 22:55:00 29° SSE 22:56:54 20° SE
COSMO-SKYMED 1 2.5 22:51:33 11° NNE 22:55:47 68° ESE 23:00:05 10° S
Cosmos 1814 Rocket 4.5 22:50:41 10° SSW 22:55:51 61° WNW 23:00:59 10° NNE
USA 305 4.5 22:53:16 10° NNW 22:56:24 20° NNE 22:56:39 19° NNE
Cosmos 1570 Rocket 4.3 22:52:20 10° SSW 22:57:33 68° WNW 23:02:47 10° NNE
Meteor 1-10 Rocket 4.3 22:52:01 10° S 22:57:39 58° E 23:03:14 10° NNE
CZ-4C R/B 4.2 22:59:07 25° SE 22:59:07 25° SE 23:01:05 10° SSE
COSMOS 2455 4.1 22:54:26 10° WSW 23:00:00 38° NW 23:05:36 10° NNE
Cosmos 1633 Rocket 3.0 22:55:40 10° N 23:00:05 87° W 23:04:28 10° S
CZ-4 R/B 4.5 22:56:52 10° SSE 23:00:52 52° ENE 23:04:54 10° N
Meteor 1-11 Rocket 4.0 22:56:23 10° N 23:01:44 42° ENE 23:07:10 10° SE
Cosmos 1151 Rocket 3.7 22:57:59 10° SSW 23:02:13 56° W 23:06:31 10° N
Helios 1B 4.4 22:59:18 13° NNE 23:03:10 79° ESE 23:07:29 10° S
X-37B 0.9 23:00:45 10° SW 23:03:24 46° SSE 23:03:24 46° SSE
Cosmos 2298 Rocket 4.1 22:59:54 10° N 23:05:06 51° ENE 23:10:17 10° SE
Cosmos 2322 Rocket 2.9 23:00:31 10° N 23:05:35 31° ENE 23:05:58 31° ENE
Cosmos 1980 Rocket 3.1 23:04:36 10° NW 23:10:03 50° WSW 23:15:26 10° S
Landsat 5 3.2 23:14:49 37° NNE 23:16:19 79° ESE 23:20:14 10° S
Feng Yun 1-1 Rocket 4.4 23:11:36 10° SSE 23:17:21 55° ENE 23:23:04 10° N
DMSP B5D2-2 4.3 23:17:38 42° E 23:18:09 43° E 23:23:06 10° S
Cosmos 1818 3.4 23:13:17 10° NNW 23:18:46 77° ENE 23:22:56 18° SE
Meteor 2-15 Rocket 4.3 23:13:21 10° S 23:19:26 74° E 23:25:32 10° NNE
ISS -2.8 23:16:22 10° WNW 23:19:38 47° SW 23:20:29 37° S
CZ-4C R/B 3.2 23:14:01 10° NW 23:21:32 77° WSW 23:30:08 10° SSE
Cosmos 2082 Rocket 3.9 23:20:01 10° WSW 23:24:52 28° NW 23:29:44 10° N
Okean O Rocket 1.7 23:20:27 10° S 23:24:54 80° WSW 23:29:23 10° NNW
SL-16 R/B 2.2 23:19:26 10° NNW 23:25:03 58° ENE 23:27:08 37° SE
ARGOS 3.3 23:25:21 10° S 23:30:45 74° WSW 23:36:11 10° NNW
Cosmos 1470 Rocket 3.8 23:27:00 10° NNW 23:31:26 69° W 23:35:52 10° S
Cosmos 44 Rocket 3.2 23:27:52 10° NW 23:32:46 81° WSW 23:34:46 35° SSE
Cosmos 2266 Rocket 4.0 23:27:15 10° N 23:33:41 90° NE 23:40:07 10° S
Aureole 3 Rocket 3.1 23:32:26 10° S 23:36:32 75° E 23:37:00 68° NE
Cosmos 1867 3.4 23:34:49 10° SSW 23:40:15 77° ESE 23:40:50 68° ENE
Cosmos 2333 Rocket 4.4 23:36:36 10° N 23:37:11 12° N 23:37:11 12° N
H-2A R/B 3.7 23:36:29 10° SSW 23:41:07 33° W 23:45:40 10° NNW
Cosmos 2150 Rocket 4.0 23:36:16 10° NNW 23:41:28 82° WSW 23:46:43 10° SSE
USA 267 4.5 23:41:27 22° NNE 23:44:23 31° NNW 23:49:56 10° W
USA 32 4.1 23:43:45 10° S 23:48:57 77° W 23:51:15 34° N
Spot 2 4.3 23:44:05 10° SSE 23:49:13 86° ENE 23:54:22 10° NNW
Cosmos 1125 Rocket 3.7 23:47:40 10° NNW 23:52:54 70° WSW 23:56:50 18° S
CZ-2C R/B 4.0 23:50:08 10° N 23:54:46 34° WNW 23:59:23 10° SW
